Regional Weather Roundup
Issued by NWS

Home | Current Version | Previous Version | Graphics & Text | Print | Product List | Glossary On
Versions: 1 2 3 4 5 6 7 8 9 10 11 12 13 14 15 16 17 18 19 20 21 22 23 24 25 26 27 28 29 30 31 32 33 34 35 36 37 38 39 40 41 42 43 44 45 46 47 48 49 50
000
ASUS45 KPSR 160410
RWRAZ

ARIZONA REGIONAL HOURLY WEATHER ROUNDUP
NATIONAL WEATHER SERVICE PHOENIX AZ
900 PM MST TUE APR 15 2014

NOTE: FAIR INDICATES FEW OR NO CLOUDS BELOW 12,000 FEET WITH NO
SIGNIFICANT WEATHER AND/OR OBSTRUCTIONS TO VISIBILITY.

AZZ001>003-036-160500-
NORTHWEST ARIZONA

CITY           SKY/WX    TMP DP  RH WIND       PRES   REMARKS
BULLHEAD CITY  CLEAR     75   7   7 E5        29.74R
KINGMAN        CLEAR     56  -5   8 S8        29.88S
$$

AZZ004>008-015-016-018-160500-
NORTH CENTRAL ARIZONA

CITY           SKY/WX    TMP DP  RH WIND       PRES   REMARKS
GRAND CANYON   PTCLDY    48  -7  10 SW6       30.01R
WILLIAMS       PTCLDY    48  -4  11 CALM      30.10R
PRESCOTT       CLEAR     60   0   9 W8        29.96R
FLAGSTAFF      PTCLDY    42   8  24 CALM      30.05R
PAYSON         CLOUDY    59  14  17 CALM      29.98R
PAGE           CLEAR     69   5   8 SW10G20   29.83R
$$

AZZ009>014-017-160500-
NORTHEAST ARIZONA

CITY           SKY/WX    TMP DP  RH WIND       PRES   REMARKS
WINSLOW        CLOUDY    57  10  15 SW10      29.92R
SAINT JOHNS    MOCLDY    56   6  13 W8        29.95R
WINDOW ROCK    MOCLDY    44  -2  14 CALM      29.99R
SHOW LOW       MOCLDY    50   7  17 S9        30.03R
$$

AZZ023-160500-
GREATER PHOENIX AREA

CITY           SKY/WX    TMP DP  RH WIND       PRES   REMARKS
PHOENIX        CLEAR     79  15   9 VRB3      29.74R
BUCKEYE          N/A     68  18  14 CALM      29.75R
LUKE AFB       NOT AVBL
DEER VALLEY    CLEAR     70   6   8 CALM      29.77R
SCOTTSDALE     CLEAR     74  17  11 NE3       29.78R
MESA-GATEWAY   CLEAR     72  14  11 CALM      29.78S
CHANDLER       PTCLDY    77  18  10 NW6       29.76R
$$

AZZ027-028-160500-
SOUTHWEST MARICOPA COUNTY AND PINAL COUNTY

CITY           SKY/WX    TMP DP  RH WIND       PRES   REMARKS
CASA GRANDE    CLEAR     72   5   7 NW7       29.78R
GILA BEND      CLEAR     75  10   8 SE3       29.75R
$$

AZZ503-504-507>509-160500-
SOUTHEAST ARIZONA

CITY           SKY/WX    TMP DP  RH WIND       PRES   REMARKS
TUCSON         CLEAR     75   7   7 CALM      29.84R
DAVIS-MONTHAN  CLEAR     73   8   8 W5        29.83R
NOGALES        CLEAR     67   8  10 N5        29.90R
SIERRA VISTA   PTCLDY    66   7   9 W12       29.95R
DOUGLAS        CLEAR     64   9  11 N9        29.90R
SAFFORD        CLEAR     65   7  10 E6        29.85R
$$

AZZ020-021-025-026-031-160500-
SOUTHWEST ARIZONA

CITY           SKY/WX    TMP DP  RH WIND       PRES   REMARKS
YUMA           CLEAR     81  23  11 W6        29.72R
$$

CAZ031-033-041-043-047-048-061-160500-
SOUTHERN CALIFORNIA

CITY           SKY/WX    TMP DP  RH WIND       PRES   REMARKS
DOWNTOWN L.A.  MOCLDY    58  53  84 W6        29.87R
L.A. AIRPORT   CLOUDY    59  54  83 W10       29.87R
SAN DIEGO      CLOUDY    61  53  75 W3        29.92R
BURBANK        CLEAR     63  52  67 SE6       29.85R
ONTARIO        PTCLDY    68  48  48 W6        29.86R
RIVERSIDE      CLEAR     69  44  40 W6        29.86R
PALM SPRINGS   CLEAR     85  24  11 N15G22    29.75R
EL CENTRO NAS  PTCLDY    80  32  17 W13       29.71R
IMPERIAL       CLEAR     76  32  20 W8        29.71R
BLYTHE         CLEAR     76  20  12 CALM      29.72R
NEEDLES        CLEAR     77   3   5 SW3       29.74R
$$

NVZ020-UTZ003-160500-
SOUTHERN NEVADA-UTAH

CITY           SKY/WX    TMP DP  RH WIND       PRES   REMARKS
LAS VEGAS      PTCLDY    74  14  10 SW9       29.74R
SALT LAKE CITY CLOUDY    55  25  31 N12       29.91R
$$

NMZ009-TXZ055-160500-
NEW MEXICO-WEST TEXAS

CITY           SKY/WX    TMP DP  RH WIND       PRES   REMARKS
ALBUQUERQUE    PTCLDY    58   7  13 S18G24    29.92S
EL PASO        MOCLDY    62   4  10 CALM      29.94S
$$


........................KEY........................
SKY/WX - SKY CONDITION/WEATHER
TMP    - TEMPERATURE IN FAHRENHEIT
DP     - DEW POINT IN FAHRENHEIT
RH     - RELATIVE HUMIDITY IN PERCENT
WIND   - DIRECTION AND SPEED IN MILES PER HOUR (MPH)
VRB    - VARIABLE WIND DIRECTION
PRES   - MEAN SEA LEVEL PRESSURE IN INCHES OF MERCURY
         F - FALLING PRESSURE   R - RISING PRESSURE
         S - STEADY PRESSURE
VSB    - VISIBILITY IN MILES
HX     - HEAT INDEX IN FAHRENHEIT
WCI    - WIND CHILL INDEX IN FAHRENHEIT
TC     - TEMPERATURE IN CELSIUS WHICH IS ALSO KNOWN AS
         TEMPERATURE IN CENTIGRADE
AFB    - AIR FORCE BASE
         LUKE AFB IS LUKE AIR FORCE BASE
         DAVIS-MONTHAN IS DAVIS-MONTHAN AIR FORCE BASE
NAS    - NAVAL AIR STATION
         EL CENTRO NAS IS EL CENTRO NAVAL AIR STATION
N/A    - NOT AVAILABLE



USA.gov is the U.S. government's official web portal to all federal, state and local government web resources and services.